Wind_Speed
2 2 2 2 2 3 4 3 4 4 4 4 4 5 5 5 5 5 5 5 5 5 5 4 4 4 4 4 4 4 5 5 6 6 6 5 5 5 5 5 6 6 6 6 6 5 5 5 6
3 3 2 2 2 3 4 4 5 4 5 5 6 6 6 6 6 6 6 6 6 6 5 5 5 4 4 5 5 5 5 6 6 6 7 6 6 6 6 6 6 7 6 6 6 6 6 7 7
3 3 3 3 3 4 5 5 5 5 6 6 6 6 6 6 6 6 7 7 8 7 6 6 6 5 6 5 6 6 6 6 6 7 7 7 7 7 7 7 7 7 7 7 7 7 7 8 8
3 3 3 3 4 5 6 6 6 6 7 7 7 7 7 7 7 7 8 8 9 8 8 8 7 7 7 7 7 7 7 7 7 7 7 7 7 7 8 8 8 8 8 8 8 9 8 8 8
4 4 4 4 4 6 6 6 7 7 8 8 7 7 7 7 7 8 8 9 9 9 9 9 8 8 9 9 8 8 8 8 8 8 7 8 8 8 8 8 8 8 9 9 9 9 9 9 9
4 4 4 5 5 6 6 7 8 8 8 8 8 8 9 9 8 9 9 9 9 8 8 8 9 9 9 10 9 9 9 9 9 9 9 9 9 9 9 9 9 9 9 9 9 9 10 10 10
5 5 5 6 6 7 7 7 8 8 9 9 9 9 9 9 9 10 10 10 9 9 9 9 9 9 9 9 10 10 10 10 10 10 10 10 10 10 9 9 9 9 9 9 9 9 10 10 9
6 6 6 7 7 8 8 8 8 8 9 9 10 10 10 10 10 10 10 10 10 10 10 9 10 10 11 11 11 12 12 12 11 12 12 11 11 11 11 10 9 9 9 10 10 10 9 9 9
7 7 7 7 7 8 8 8 8 9 9 10 10 10 11 11 11 11 10 10 11 11 10 10 11 11 11 11 12 13 13 13 12 13 13 13 12 11 11 10 10 9 9 10 10 10 10 10 10
8 8 8 8 8 8 9 9 9 10 10 10 10 10 10 10 11 11 10 10 11 11 11 11 11 12 12 13 13 13 13 14 13 13 12 12 12 11 11 10 10 10 10 10 10 10 11 11 11
9 9 8 8 8 9 10 10 10 10 10 10 10 9 10 10 11 10 11 11 11 11 12 12 13 13 13 13 14 14 14 13 12 12 12 12 12 12 11 11 11 11 10 10 11 11 11 11 12
8 8 9 9 9 9 10 10 10 10 10 10 10 9 10 10 11 11 11 11 11 11 12 13 13 14 14 14 14 14 15 14 13 13 13 13 13 12 12 12 12 12 11 11 11 12 12 12 12
8 8 9 9 9 9 10 10 10 10 10 10 10 10 10 10 11 11 11 11 12 12 13 13 13 14 14 15 15 15 15 14 14 14 14 13 13 13 13 13 12 12 12 12 12 12 12 12 12
9 9 10 10 10 10 10 10 10 9 11 11 11 11 10 11 11 12 12 12 13 13 13 13 14 14 15 15 15 15 15 15 15 14 14 14 14 14 14 13 13 13 13 13 12 13 13 12 12
9 9 10 10 10 10 10 10 10 10 11 11 11 11 10 11 12 12 12 13 13 13 14 14 14 15 15 15 15 15 15 14 14 14 14 14 14 14 14 14 13 14 14 13 13 13 13 13 12
9 9 10 10 10 10 11 10 11 11 11 12 11 11 12 12 13 12 13 14 14 14 14 14 15 15 16 16 16 16 15 14 14 14 14 14 14 14 14 14 14 15 15 14 15 14 14 14 13
9 10 10 10 10 11 11 11 11 12 12 13 13 12 12 13 13 13 14 15 15 15 15 15 15 15 15 16 16 15 15 14 14 14 14 14 14 14 14 14 14 14 15 15 16 15 14 14 13
9 9 10 11 10 11 11 11 11 12 12 13 13 13 14 14 14 14 15 15 15 15 15 15 15 15 15 15 15 14 13 14 14 14 14 14 14 14 15 15 15 15 16 16 16 15 14 14 13
10 10 11 11 12 12 12 11 12 12 13 13 13 14 14 16 16 15 15 15 15 15 15 16 15 15 14 14 14 13 13 13 13 14 13 14 14 14 15 15 16 16 16 16 16 15 15 15 14
11 11 11 12 13 12 12 12 12 12 13 14 14 15 15 16 16 16 16 16 16 15 15 15 15 15 15 14 14 13 13 13 14 14 14 15 15 14 14 15 15 16 16 16 15 15 15 14 14
11 12 11 11 12 12 12 12 11 12 13 14 15 16 16 16 16 16 15 16 16 16 16 15 15 15 15 14 14 14 14 14 15 15 15 15 15 15 15 15 15 15 15 15 15 15 14 15 14
11 12 12 12 12 11 11 12 11 12 14 15 15 16 16 17 17 16 15 16 17 17 16 16 16 16 15 15 15 15 15 15 15 15 16 16 16 16 16 15 15 15 15 15 15 15 15 16 16
11 11 11 11 11 11 11 12 13 13 15 15 16 16 17 17 17 17 17 17 17 17 17 16 16 16 16 15 15 16 16 16 16 16 16 17 17 17 16 16 16 16 15 15 15 16 16 16 16
11 11 11 10 10 11 10 13 15 14 16 16 17 17 18 18 17 17 17 17 17 17 17 17 17 17 17 17 16 17 17 17 16 16 16 17 17 17 16 16 16 16 16 16 16 16 16 16 16
12 11 11 10 10 11 12 15 16 16 17 17 17 17 17 17 17 16 17 17 17 17 17 17 17 17 17 17 17 17 17 16 16 16 16 16 16 16 17 17 17 17 17 17 17 16 17 17 16
12 12 11 11 11 13 15 17 17 17 17 17 17 17 17 17 16 16 16 16 16 17 16 16 16 16 16 17 17 17 16 16 16 16 16 16 16 17 17 17 18 18 17 17 17 17 17 17 17
13 13 13 13 13 14 14 18 18 17 17 17 17 17 18 17 17 17 17 17 17 17 17 16 16 16 16 16 16 16 16 16 16 16 16 16 16 17 17 17 17 18 17 17 17 17 18 18 17
14 13 14 14 14 13 14 17 18 17 18 18 18 18 18 18 18 18 18 18 18 17 17 17 16 16 16 17 17 17 17 17 16 17 17 17 17 17 17 17 17 18 18 17 18 18 18 18 18
15 15 15 15 15 15 16 17 18 18 19 19 19 18 18 19 19 18 18 18 18 18 18 17 17 17 17 17 17 17 17 17 17 18 18 18 17 17 17 18 17 17 18 18 18 18 18 19 19
17 16 16 16 16 17 18 18 19 20 20 20 20 20 19 20 19 19 19 18 18 18 18 17 17 17 17 17 17 17 17 18 18 18 18 18 18 19 19 18 18 18 18 18 18 19 19 19 20
Wind_Direction
293 293 268 255 270 268 271 277 291 300 298 293 290 288 283 291 290 286 283 270 269 268 267 274 277 270 265 269 263 270 272 277 280 284 286 279 278 284 281 273 276 276 272 269 274 276 283 285 284
281 276 260 257 258 264 270 278 282 286 288 287 290 291 286 287 284 283 281 280 278 275 276 279 281 276 275 280 275 277 280 280 283 287 286 279 273 276 278 278 277 274 268 265 271 275 277 280 282
264 266 262 254 262 271 269 275 279 282 282 284 286 285 286 284 280 280 281 283 283 281 280 281 280 278 275 277 282 281 284 284 288 292 294 287 282 277 277 280 275 275 270 267 271 276 277 278 279
268 264 264 265 271 271 276 278 279 282 283 286 286 285 285 283 282 282 284 284 286 283 281 281 279 278 281 280 284 280 281 284 289 293 295 293 289 282 282 281 278 275 278 275 275 278 281 277 279
270 263 264 263 268 272 278 275 282 286 287 288 287 286 286 287 286 286 287 287 284 280 279 279 279 278 280 282 281 279 281 284 287 291 292 293 293 288 284 280 279 278 280 277 275 278 280 279 282
276 268 271 273 273 275 282 281 283 287 288 290 289 289 287 289 286 286 285 285 285 282 280 279 277 279 280 281 276 278 284 286 287 289 289 289 288 289 286 283 280 278 277 277 277 277 279 282 285
276 274 268 271 272 280 284 281 285 289 289 288 288 292 294 290 287 286 285 285 285 283 279 278 280 281 282 280 278 281 283 285 286 286 286 284 284 286 285 283 279 277 278 280 279 279 279 281 286
274 276 273 275 278 283 283 283 287 290 288 287 287 290 292 291 291 288 285 285 285 284 280 278 279 281 281 279 279 281 283 284 286 284 282 282 283 284 283 278 278 277 279 280 279 278 282 285 287
272 274 272 277 280 285 284 286 288 289 288 287 288 288 291 290 290 288 286 284 284 283 283 281 280 281 283 281 280 281 282 283 283 282 281 282 282 282 283 277 276 276 279 279 279 280 284 285 286
269 274 274 275 280 282 284 284 286 290 290 289 289 291 292 291 290 289 289 287 283 282 284 284 285 286 287 286 284 286 283 280 281 281 279 279 280 279 278 275 277 279 279 281 281 280 284 287 286
268 271 270 271 277 280 282 283 285 288 291 292 290 293 295 292 292 292 292 292 289 288 285 284 286 288 289 287 285 285 285 282 281 280 282 280 277 276 275 276 279 280 280 282 282 282 284 285 285
270 270 268 268 274 279 282 284 284 286 290 291 293 297 296 294 294 293 294 294 292 292 292 288 289 292 292 289 287 285 284 284 285 284 287 287 284 279 276 279 279 280 280 281 283 284 285 285 285
268 268 269 270 274 279 280 281 282 284 287 289 293 295 296 298 300 299 297 296 292 292 292 292 294 294 293 292 288 286 286 283 284 287 288 285 284 281 277 275 278 279 280 282 284 286 285 286 287
273 272 273 275 276 276 277 278 280 283 285 289 294 296 295 298 300 300 299 298 297 298 297 295 297 297 295 293 291 290 289 284 284 285 285 284 284 282 282 279 280 281 282 283 285 287 285 285 287
274 275 275 277 280 278 277 276 280 284 286 289 294 293 294 299 299 299 298 298 299 300 300 299 299 298 296 292 291 290 290 288 286 285 285 285 284 283 281 281 278 281 281 281 284 286 288 285 285
276 278 279 278 279 281 279 280 281 283 284 287 290 290 294 296 300 301 300 300 300 300 300 301 301 299 298 294 291 291 292 292 290 289 287 285 284 282 279 278 276 279 281 282 284 286 288 286 283
275 281 283 280 282 285 283 280 277 280 284 288 291 293 296 297 299 301 301 301 301 301 302 301 301 299 298 296 294 293 291 291 291 287 284 284 284 281 280 279 281 282 281 282 283 284 287 285 283
275 276 280 282 285 284 285 284 282 283 285 289 291 294 296 298 300 301 301 301 301 302 302 301 300 300 299 297 296 294 292 290 290 289 284 283 281 280 278 279 281 283 281 280 281 282 285 286 284
268 269 273 280 282 281 283 286 288 286 286 290 293 295 296 297 299 299 300 301 302 302 302 301 298 297 299 299 297 294 291 290 288 288 284 283 284 284 278 278 279 282 282 280 278 282 285 286 285
265 268 272 277 280 278 280 281 285 289 289 290 293 294 296 298 299 300 300 301 303 302 303 300 297 296 297 297 296 294 291 288 287 286 285 284 285 286 285 280 280 281 281 279 279 282 284 285 283
267 268 269 274 283 283 283 282 281 289 293 293 294 297 297 298 300 299 299 300 302 303 301 298 297 296 295 293 293 292 290 290 287 285 285 285 284 283 284 282 279 280 280 281 278 277 279 281 281
265 266 269 274 281 282 282 288 287 289 291 294 296 297 298 298 300 299 298 300 303 302 300 297 296 296 293 291 291 291 290 289 288 286 286 286 284 282 281 281 282 279 279 280 278 277 278 279 280
264 266 269 273 279 279 283 286 287 288 290 293 298 300 301 299 299 299 297 300 303 301 298 297 296 293 291 290 291 292 291 289 287 288 288 287 285 283 280 281 282 280 280 282 283 282 280 279 278
263 264 267 271 276 279 279 281 283 288 291 294 297 299 300 299 299 298 299 298 300 298 296 296 295 293 292 291 291 293 293 291 289 289 289 288 285 284 282 281 282 281 280 282 282 281 281 282 280
259 262 266 271 277 279 276 275 281 289 293 294 295 296 297 297 297 297 298 299 299 299 297 296 294 293 292 291 290 291 291 291 289 289 289 288 286 285 284 284 283 281 279 280 280 281 280 283 282
260 259 258 257 261 269 272 276 284 291 292 292 293 294 295 294 295 297 298 299 301 301 299 297 297 296 293 292 291 290 290 290 289 289 288 287 286 286 285 285 284 282 279 279 278 279 281 283 283
258 255 255 257 260 265 268 277 282 288 292 293 293 295 297 296 296 297 296 299 300 299 298 299 300 298 295 293 291 290 290 289 288 289 288 287 287 287 285 283 283 282 280 278 277 277 279 281 282
260 260 259 258 260 261 264 270 280 288 292 293 293 294 296 297 297 295 294 296 297 298 298 299 299 298 297 295 291 289 289 288 290 290 289 289 289 286 285 284 282 281 280 279 278 277 278 279 281
262 260 261 261 261 262 263 268 281 287 291 294 293 294 295 294 294 293 294 296 298 298 298 298 298 298 297 295 292 290 288 288 290 293 290 289 287 286 285 283 282 281 281 281 280 280 280 279 279
267 265 261 262 262 263 267 273 278 286 289 293 293 293 294 294 295 294 294 296 298 297 296 296 296 297 297 297 294 292 289 289 290 290 290 289 287 286 285 282 280 282 281 280 280 281 281 279 277
Height
5877 5877 5877 5878 5879 5879 5878 5878 5878 5878 5878 5878 5878 5878 5878 5878 5879 5881 5879 5877 5878 5878 5878 5878 5877 5877 5878 5878 5877 5877 5877 5877 5877 5876 5876 5876 5875 5875 5875 5875 5875 5875 5875 5875 5875 5874 5874 5874 5874
5877 5877 5878 5878 5877 5877 5878 5878 5878 5878 5878 5877 5877 5878 5877 5878 5878 5878 5877 5877 5877 5877 5877 5877 5877 5877 5877 5877 5877 5876 5876 5876 5876 5875 5875 5875 5874 5874 5874 5874 5874 5874 5874 5874 5874 5874 5873 5873 5873
5876 5876 5877 5877 5876 5877 5877 5877 5877 5877 5877 5877 5877 5877 5877 5877 5877 5877 5876 5876 5877 5876 5876 5876 5876 5876 5876 5876 5876 5875 5875 5875 5874 5874 5874 5873 5873 5873 5873 5873 5873 5873 5872 5872 5872 5872 5872 5872 5872
5876 5877 5877 5877 5876 5876 5876 5876 5876 5876 5876 5876 5876 5876 5876 5876 5876 5876 5875 5875 5875 5875 5875 5875 5875 5875 5875 5874 5874 5874 5874 5874 5873 5873 5872 5872 5872 5872 5872 5872 5872 5871 5871 5871 5871 5871 5871 5870 5870
5875 5876 5876 5876 5875 5875 5875 5875 5875 5875 5875 5875 5875 5875 5875 5875 5875 5875 5874 5874 5874 5874 5874 5874 5874 5874 5873 5873 5873 5872 5872 5872 5872 5871 5871 5871 5871 5871 5871 5870 5870 5870 5870 5869 5869 5869 5869 5869 5868
5875 5875 5876 5875 5875 5874 5874 5874 5874 5874 5874 5874 5874 5874 5874 5874 5874 5873 5873 5873 5873 5873 5873 5872 5872 5872 5872 5872 5871 5871 5871 5871 5870 5870 5870 5870 5869 5869 5869 5869 5868 5868 5868 5868 5867 5867 5867 5867 5866
5875 5875 5874 5874 5874 5874 5874 5873 5873 5873 5873 5874 5873 5873 5873 5872 5872 5872 5872 5871 5871 5871 5871 5871 5870 5870 5870 5870 5870 5869 5869 5869 5869 5868 5868 5868 5868 5867 5867 5867 5866 5866 5866 5866 5865 5865 5865 5865 5864
5873 5874 5873 5873 5873 5873 5873 5872 5872 5872 5872 5872 5872 5872 5871 5871 5871 5870 5870 5870 5870 5869 5869 5869 5869 5869 5868 5868 5868 5867 5867 5867 5866 5866 5866 5866 5865 5865 5865 5865 5865 5865 5864 5864 5864 5863 5863 5863 5863
5871 5873 5872 5872 5872 5872 5871 5871 5871 5871 5871 5870 5870 5870 5870 5869 5869 5869 5868 5868 5868 5867 5867 5867 5867 5867 5866 5866 5866 5865 5865 5865 5864 5864 5864 5863 5863 5863 5863 5863 5863 5863 5862 5862 5862 5862 5861 5861 5861
5870 5870 5870 5870 5870 5870 5870 5870 5870 5870 5869 5869 5869 5868 5868 5868 5867 5867 5867 5866 5866 5866 5865 5865 5865 5865 5864 5864 5863 5863 5863 5862 5862 5862 5861 5861 5861 5861 5861 5861 5861 5861 5860 5860 5860 5860 5860 5859 5859
5868 5869 5869 5868 5868 5869 5869 5869 5868 5868 5868 5868 5867 5867 5866 5866 5866 5865 5865 5865 5864 5864 5864 5863 5863 5862 5862 5862 5861 5861 5860 5860 5860 5859 5859 5859 5859 5859 5859 5859 5859 5858 5858 5858 5858 5858 5857 5857 5857
5867 5867 5867 5867 5867 5867 5867 5867 5867 5867 5867 5866 5865 5865 5865 5864 5864 5863 5863 5863 5862 5862 5862 5861 5861 5860 5860 5859 5859 5858 5858 5858 5857 5857 5856 5856 5857 5857 5857 5857 5857 5857 5856 5856 5856 5855 5855 5855 5854
5865 5865 5865 5865 5866 5866 5866 5865 5865 5865 5865 5865 5864 5864 5864 5863 5862 5862 5861 5861 5860 5860 5860 5859 5859 5858 5857 5857 5856 5856 5855 5855 5855 5854 5854 5854 5854 5854 5854 5854 5854 5854 5854 5854 5854 5853 5853 5853 5852
5863 5863 5864 5864 5864 5864 5864 5864 5864 5864 5863 5863 5863 5862 5862 5861 5861 5860 5859 5859 5858 5858 5857 5856 5856 5855 5855 5854 5854 5853 5853 5852 5852 5852 5852 5851 5851 5852 5851 5852 5852 5852 5851 5851 5851 5851 5850 5850 5850
5862 5862 5862 5862 5862 5862 5863 5863 5862 5862 5862 5861 5861 5861 5860 5860 5859 5858 5857 5857 5856 5855 5855 5854 5853 5853 5852 5851 5851 5850 5850 5849 5849 5849 5849 5849 5849 5849 5849 5849 5849 5849 5848 5848 5848 5848 5848 5848 5847
5860 5860 5860 5861 5860 5860 5862 5861 5860 5860 5860 5860 5859 5859 5858 5858 5857 5856 5855 5855 5854 5853 5852 5851 5851 5850 5849 5849 5848 5847 5847 5847 5846 5846 5846 5846 5846 5846 5846 5846 5846 5846 5846 5845 5845 5845 5845 5845 5845
5859 5859 5859 5859 5859 5858 5859 5859 5859 5858 5858 5858 5857 5856 5856 5856 5855 5854 5853 5852 5851 5851 5850 5849 5848 5847 5846 5846 5845 5844 5844 5844 5843 5843 5843 5843 5843 5843 5843 5843 5843 5843 5843 5842 5842 5842 5841 5841 5841
5857 5857 5857 5857 5857 5857 5857 5857 5857 5856 5856 5856 5855 5854 5854 5853 5853 5852 5851 5850 5849 5848 5847 5846 5845 5844 5844 5842 5842 5841 5841 5841 5840 5840 5840 5840 5840 5839 5839 5839 5839 5839 5839 5839 5838 5838 5838 5838 5838
5855 5855 5855 5855 5855 5855 5854 5854 5854 5854 5854 5854 5853 5852 5852 5851 5850 5849 5848 5847 5846 5845 5844 5843 5842 5842 5841 5840 5839 5838 5838 5838 5837 5837 5837 5836 5836 5836 5836 5836 5836 5835 5835 5835 5835 5835 5835 5834 5834
5853 5853 5853 5854 5853 5853 5852 5852 5852 5852 5852 5851 5851 5850 5849 5848 5847 5846 5845 5844 5843 5842 5841 5840 5839 5838 5838 5837 5836 5835 5835 5834 5834 5834 5833 5833 5832 5832 5832 5832 5832 5831 5831 5831 5831 5831 5831 5831 5831
5851 5851 5851 5851 5851 5850 5850 5850 5850 5849 5849 5849 5848 5847 5846 5846 5845 5843 5842 5841 5840 5840 5838 5837 5836 5835 5834 5833 5833 5832 5831 5831 5830 5830 5830 5829 5829 5828 5828 5828 5828 5827 5827 5827 5827 5828 5828 5828 5827
5848 5849 5849 5849 5848 5848 5849 5848 5848 5848 5847 5847 5846 5845 5844 5843 5841 5840 5839 5838 5837 5836 5835 5834 5832 5831 5830 5830 5829 5828 5828 5827 5827 5826 5826 5825 5825 5824 5824 5824 5824 5824 5824 5823 5823 5824 5824 5824 5824
5846 5846 5847 5846 5846 5846 5846 5846 5846 5845 5845 5844 5843 5842 5841 5840 5838 5837 5836 5835 5833 5833 5831 5830 5829 5828 5827 5826 5825 5824 5823 5823 5822 5822 5822 5821 5820 5820 5820 5820 5820 5820 5820 5820 5820 5820 5820 5820 5820
5843 5844 5844 5844 5844 5845 5845 5845 5843 5842 5842 5841 5840 5840 5838 5837 5836 5834 5833 5832 5831 5829 5828 5826 5825 5824 5823 5822 5821 5820 5819 5819 5818 5818 5817 5817 5816 5816 5816 5816 5816 5816 5816 5816 5816 5816 5816 5815 5815
5841 5841 5842 5842 5842 5843 5843 5842 5842 5840 5839 5838 5838 5837 5835 5834 5832 5832 5830 5829 5827 5826 5824 5823 5821 5820 5819 5818 5817 5816 5815 5814 5814 5813 5813 5812 5812 5812 5812 5811 5811 5811 5811 5812 5812 5812 5812 5812 5811
5837 5838 5840 5840 5841 5841 5840 5838 5839 5838 5837 5836 5835 5833 5832 5830 5829 5828 5827 5825 5823 5822 5820 5819 5818 5816 5815 5814 5813 5812 5811 5810 5810 5809 5809 5808 5808 5808 5807 5807 5807 5807 5807 5807 5807 5807 5808 5807 5807
5834 5835 5836 5837 5837 5837 5837 5836 5835 5834 5834 5833 5831 5830 5828 5826 5825 5824 5823 5821 5820 5818 5817 5815 5814 5812 5811 5810 5809 5807 5807 5806 5805 5805 5804 5804 5804 5803 5803 5802 5802 5802 5802 5802 5803 5803 5803 5803 5803
5831 5831 5832 5833 5833 5833 5834 5833 5831 5830 5830 5829 5828 5827 5825 5823 5822 5821 5819 5818 5816 5814 5812 5811 5809 5808 5807 5806 5805 5804 5803 5802 5801 5800 5800 5799 5799 5798 5798 5798 5798 5798 5798 5798 5798 5798 5798 5798 5798
5828 5828 5828 5829 5829 5830 5830 5831 5828 5826 5826 5825 5824 5823 5821 5820 5818 5816 5815 5813 5812 5810 5808 5807 5805 5804 5803 5801 5800 5799 5798 5798 5797 5796 5795 5794 5794 5793 5793 5793 5793 5793 5793 5793 5793 5793 5793 5793 5793
5823 5824 5824 5825 5825 5826 5825 5828 5824 5823 5821 5821 5820 5818 5817 5815 5814 5812 5811 5809 5807 5805 5804 5802 5801 5800 5798 5797 5796 5795 5794 5793 5792 5792 5791 5790 5789 5788 5788 5788 5788 5788 5788 5788 5788 5788 5787 5787 5787